Voltar ao catálogo

STARLINK-5498

AtivoComunicaçõesVLEO
NORAD 55633·PAYLOAD·🇺🇸 United States

Lançado Feb 17, 2023 de Vandenberg Space Force Base

Loading…

Próximas Passagens (próximas 24 horas)

TLE

AtualizadoSource: CelesTrak SupGP

Época: Sep 15, 2026, 02:12 UTC

1 55633C 23021F   26258.09215278 -.00034511  00000+0 -28925-2 0  2588
2 55633  70.0000  86.8884 0002674 271.7603 290.5904 14.98344184    14

Acompanhe STARLINK-5498 em tempo real com AllMySat

Download on the App Store